Jacqueline Cochran Regional Airport Palm Springs US
ICAO: KTRM
IATA: TRM
Category: Medium
Scheduled Services: No

Elevation: -115 ft
TransAlt. 18000 ft.

Airport Communications:
PALM SPRINGS APP/DEP:135.275
ASOS:118.325
RIVERSIDE RDO:122.3
CTAF/UNICOM:123

KTRM Zoom In..

Runways:

(A) RW 12 length 4995 ft width 100 ft
---- / hdg 122

(B) RW 17 length 8500 ft width 150 ft
---- / hdg 167

(C) RW 30 length 4995 ft width 100 ft
---- / hdg 302

(D) RW 35 length 8500 ft width 150 ft
---- / hdg 347

Location; KTRM
Day. 15 / Time. 21.52 Zulu
* Altimeter: 29.76
* Temperature: 43° c. 109.4°f.
* Wind from: KTR° Speed M kn.
Dewpoint: 15° c.
Visibility: 10 Statute Miles.
Clouds: Clear (automated report).

KTRM 152152Z AUTO 13011KT 10SM CLR 43/15 A2976 RMK AO2 SLP080 T04280150


Wind From KTR°
Speed M kn.

 
 
jpsmedia.com for Web Design worldairports.se 2018   terms of use